Weather History for West Palm Beach, FL

Change the Weather History Date:

Monday, November 15, 2010

  Actual Average Record
Temperature  
Mean Temperature 73 °F 73 °F  
Max Temperature 82 °F 80 °F 88 °F (2008)
Min Temperature 64 °F 66 °F 45 °F (1969)
Degree Days  
Heating Degree Days 0 0  
Month to date heating degree days 9 0  
Since 1 July heating degree days 9 1  
Cooling Degree Days 8 8  
Month to date cooling degree days 104 137  
Year to date cooling degree days 3872 3758  
Growing Degree Days 22 (Base 50)    
Moisture  
Dew Point 59 °F    
Average Humidity 63    
Maximum Humidity 87    
Minimum Humidity 39    
Precipitation  
Precipitation T in 0.18 in 3.04 in (1994)
Month to date precipitation 1.08 2.67  
Year to date precipitation 51.79 56.87  
Snow  
Snow 0.00 in - - ()
Month to date snowfall 0.0  
Since 1 July snowfall 0.0  
Since 1 September snowfall 0.0  
Snow Depth 0.00 in    
Sea Level Pressure  
Sea Level Pressure 29.96 in    
Wind  
Wind Speed 5 mph (SSE)    
Max Wind Speed 18 mph    
Max Gust Speed 24 mph    
Visibility 10 miles    
Events Rain    
T = Trace of Precipitation, MM = Missing Value Source: NWS Daily Summary

Daily Weather History Graph

Daily Weather History Graph

Search for Another Location

Airport:

Trip Planner

Search our weather history database for the weather conditions in past years. The results will help you decide how hot, cold, wet, or windy it might be!

Date:

Astronomy

Nov. 15, 2010 Rise Set
Actual Time 6:39 AM EST 5:29 PM EST
Civil Twilight 6:15 AM EST 5:54 PM EST
Nautical Twilight 5:47 AM EST 6:22 PM EST
Astronomical Twilight 5:19 AM EST 6:50 PM EST
Moon 1:44 PM EST (11/15) 1:14 AM EST (11/15)
Length of Visible Light 11h 39m
Length of Day
10h 50m
Waxing Gibbous, 69% of the Moon is Illuminated
Nov 15
Waxing Gibbous
Nov 21
Full
Nov 28
Last Quarter
Dec 5
New
Dec 13
First Quarter

Hourly Weather History & Observations

Time (EST) Temp. Heat Index Dew Point Humidity Pressure Visibility Wind Dir Wind Speed Gust Speed Precip Events Conditions
12:53 AM 66.9 °F - 62.1 °F 84% 29.99 in 10.0 mi Calm Calm - 0.00 in Rain Light Rain
1:53 AM 68.0 °F - 62.1 °F 81% 29.98 in 10.0 mi NW 3.5 mph - 0.00 in   Mostly Cloudy
2:53 AM 66.9 °F - 62.1 °F 84% 29.97 in 10.0 mi Calm Calm - N/A   Overcast
3:53 AM 68.0 °F - 62.1 °F 81% 29.96 in 10.0 mi West 4.6 mph - N/A   Mostly Cloudy
4:53 AM 66.0 °F - 62.1 °F 87% 29.96 in 10.0 mi Calm Calm - N/A   Mostly Cloudy
5:53 AM 64.9 °F - 61.0 °F 87% 29.96 in 10.0 mi Calm Calm - N/A   Mostly Cloudy
6:53 AM 64.0 °F - 61.0 °F 90% 29.98 in 10.0 mi Calm Calm - N/A   Partly Cloudy
7:53 AM 70.0 °F - 64.0 °F 81% 29.99 in 10.0 mi Calm Calm - N/A   Partly Cloudy
8:53 AM 77.0 °F - 59.0 °F 54% 29.99 in 10.0 mi NNW 3.5 mph - N/A   Scattered Clouds
9:53 AM 78.1 °F - 57.9 °F 50% 30.00 in 10.0 mi Calm Calm - N/A   Scattered Clouds
10:53 AM 80.1 °F 80.2 °F 55.9 °F 43% 30.00 in 10.0 mi South 8.1 mph - N/A   Scattered Clouds
11:53 AM 80.1 °F 80.1 °F 55.0 °F 42% 29.98 in 10.0 mi SE 9.2 mph - N/A   Scattered Clouds
12:53 PM 81.0 °F 80.7 °F 55.0 °F 41% 29.96 in 10.0 mi SE 12.7 mph 17.3 mph N/A   Scattered Clouds
1:53 PM 81.0 °F 80.5 °F 54.0 °F 39% 29.93 in 10.0 mi SE 11.5 mph - N/A   Scattered Clouds
2:53 PM 80.1 °F 80.1 °F 55.0 °F 42% 29.92 in 10.0 mi SSE 12.7 mph - N/A   Scattered Clouds
3:53 PM 79.0 °F - 57.0 °F 47% 29.92 in 10.0 mi SE 16.1 mph - N/A   Partly Cloudy
4:53 PM 77.0 °F - 57.9 °F 52% 29.93 in 10.0 mi SE 11.5 mph - N/A   Partly Cloudy
5:53 PM 75.0 °F - 59.0 °F 57% 29.93 in 10.0 mi SE 9.2 mph - N/A   Partly Cloudy
6:53 PM 73.9 °F - 59.0 °F 59% 29.95 in 10.0 mi SE 5.8 mph - N/A   Partly Cloudy
7:53 PM 73.0 °F - 57.9 °F 59% 29.96 in 10.0 mi South 4.6 mph - N/A   Partly Cloudy
8:53 PM 71.1 °F - 57.9 °F 63% 29.96 in 10.0 mi South 3.5 mph - N/A   Partly Cloudy
9:53 PM 69.1 °F - 57.9 °F 68% 29.97 in 10.0 mi Calm Calm - N/A   Clear
10:53 PM 69.1 °F - 57.9 °F 68% 29.96 in 10.0 mi South 3.5 mph - N/A   Partly Cloudy
11:53 PM 68.0 °F - 57.9 °F 70% 29.95 in 10.0 mi Calm Calm - N/A   Partly Cloudy